User: anonymous   Login
Location: Delta State University
(33.7460°N, 90.7320°W)
Time: 06:24:35
(UTC-06:00)
Language:

Iridium 13 - Orbit

View from above orbital plane
View from above orbital plane
View from above satellite
View from above satellite

Ground track
Ground track

The orbit data is extracted from the following two-line orbital elements,

1 24840U 97030E   15025.55522428  .00000312  00000-0  10435-3 0  1065
2 24840 086.3980 355.3807 0002302 106.6979 029.1342 14.34221105921725
Epoch (UTC): 25 January 2015 13:19:31
Eccentricity: 0.0002302
inclination: 86.3980°
perigee height: 776 km
apogee height: 779 km
right ascension of ascending node: 355.3807°
argument of perigee: 106.6979°
revolutions per day: 14.34221105
mean anomaly at epoch: 29.1342°
orbit number at epoch: 92172

The dashed part of the orbit path shows where the satellite is in the earth's shadow,  

DLR